EW5738 Weather Reports


Display with metric or nautical units.
time (UTC)temp
F
wind
direction
speed
MPH
gust
MPH
rain 1hr
in
rain 24hr
in
rain mn
in
humidity
%
barometer
mb
20260831110059 63 46 0.0 2.0 0.00 0.00 0.00 85 1030.7
20260831104557 62 269 0.0 2.0 0.00 0.00 0.00 85 1030.6
20260831103057 63 295 0.0 2.0 0.00 0.00 0.00 84 1030.5
20260831101613 63 314 1.0 2.0 0.00 0.00 0.00 84 1030.4
20260831100154 63 283 1.0 2.0 0.00 0.00 0.00 83 1030.3
20260831094552 63 306 1.0 3.0 0.00 0.00 0.00 83 1030.2
20260831093053 64 324 0.0 2.0 0.00 0.00 0.00 82 1030.1
20260831091551 64 178 0.0 2.0 0.00 0.00 0.00 82 1030.0
20260831090105 64 46 0.0 2.0 0.00 0.00 0.00 81 1030.0
20260831084549 64 340 0.0 2.0 0.00 0.00 0.00 81 1029.8
20260831081548 65 303 0.0 4.0 0.00 0.00 0.00 76 1029.6
20260831080145 65 295 1.0 3.0 0.00 0.00 0.00 75 1029.5
20260831074544 66 112 0.0 2.0 0.00 0.00 0.00 74 1029.4
20260831073043 66 327 1.0 7.0 0.00 0.00 0.00 74 1029.3
20260831071541 66 124 1.0 5.0 0.00 0.00 0.00 74 1029.2
20260831070041 67 335 2.0 10.0 0.00 0.00 0.00 74 1029.1
20260831063138 68 127 2.0 8.0 0.00 0.00 0.00 74 1028.8
20260831061537 68 295 3.0 11.0 0.00 0.00 0.00 72 1028.6
20260831060035 69 23 3.0 13.0 0.00 0.00 0.00 70 1028.4
20260831054534 69 135 4.0 13.0 0.00 0.00 0.00 68 1028.1
20260831053031 70 133 6.0 12.0 0.00 0.00 0.00 67 1028.1
20260831051535 70 129 2.0 15.0 0.00 0.00 0.00 65 1028.2
20260831050028 71 132 4.0 13.0 0.00 0.00 0.00 64 1028.2
20260831043023 71 140 6.0 12.0 0.00 0.00 0.00 67 1028.4
20260831041527 72 102 4.0 13.0 0.00 0.00 0.00 66 1028.3
20260831040021 71 138 5.0 17.0 0.00 0.00 0.00 65 1028.3
20260831034517 71 156 5.0 16.0 0.00 0.00 0.00 65 1028.5
20260831033021 72 152 2.0 8.0 0.00 0.00 0.00 66 1028.5
20260831031512 72 110 2.0 11.0 0.00 0.00 0.00 62 1028.6
20260831030116 73 138 2.0 13.0 0.00 0.00 0.00 59 1028.6
20260831024507 74 137 6.0 13.0 0.00 0.00 0.00 56 1028.7
20260831023004 72 152 4.0 10.0 0.00 0.00 0.00 59 1029.0
20260831021502 71 131 3.0 10.0 0.00 0.00 0.00 59 1029.1
20260831020106 73 130 1.0 10.0 0.00 0.00 0.00 56 1029.1
20260831014558 71 20 1.0 11.0 0.00 0.00 0.00 59 1029.3
20260831013111 71 89 2.0 11.0 0.00 0.00 0.00 57 1029.5
20260831011555 72 202 2.0 9.0 0.00 0.00 0.00 57 1029.7
20260831010058 72 40 1.0 6.0 0.00 0.00 0.00 60 1029.8
20260831004550 72 291 3.0 9.0 0.00 0.00 0.00 61 1030.0
20260831003044 70 142 1.0 6.0 0.00 0.00 0.00 62 1030.2
20260831001541 70 143 5.0 12.0 0.00 0.00 0.00 63 1030.4
20260831000039 69 15 5.0 11.0 0.00 0.00 0.00 64 1030.5
20260830234538 68 136 6.0 10.0 0.00 0.00 0.00 66 1030.6
20260830233031 67 139 5.0 11.0 0.00 0.00 0.00 67 1030.6
20260830231532 67 81 4.0 11.0 0.00 0.00 0.00 67 1030.7
20260830230033 66 124 4.0 13.0 0.00 0.00 0.00 68 1030.7
20260830224529 66 127 4.0 10.0 0.00 0.00 0.00 68 1030.5
20260830223019 65 151 6.0 11.0 0.00 0.00 0.00 70 1030.5
20260830221524 64 166 4.0 12.0 0.00 0.00 0.00 73 1030.5
20260830220013 63 176 4.0 13.0 0.00 0.00 0.00 75 1030.4
20260830214509 62 170 3.0 12.0 0.00 0.00 0.00 77 1030.4
20260830213004 61 198 6.0 10.0 0.00 0.00 0.00 78 1030.3
20260830211501 59 194 2.0 11.0 0.00 0.00 0.00 81 1030.2
20260830210058 59 176 4.0 10.0 0.00 0.00 0.00 81 1030.1
20260830204556 59 281 2.0 9.0 0.00 0.00 0.00 81 1030.0
20260830203116 59 269 2.0 8.0 0.00 0.00 0.00 81 1029.9
20260830201558 59 269 1.0 8.0 0.00 0.00 0.00 81 1029.8
20260830200050 59 184 3.0 8.0 0.00 0.00 0.00 81 1029.5
20260830194549 58 183 2.0 7.0 0.00 0.00 0.00 81 1029.3
20260830193045 58 178 3.0 9.0 0.00 0.00 0.00 81 1029.2
20260830191551 58 178 4.0 6.0 0.00 0.00 0.00 81 1029.1
20260830190044 58 156 1.0 4.0 0.00 0.00 0.00 81 1029.0
20260830184542 58 200 2.0 3.0 0.00 0.00 0.00 81 1029.0
20260830183040 58 152 2.0 6.0 0.00 0.00 0.00 82 1028.9
20260830181550 58 178 1.0 5.0 0.00 0.00 0.00 82 1028.8
20260830180040 57 190 2.0 5.0 0.00 0.00 0.00 82 1028.8
20260830174536 57 295 1.0 6.0 0.00 0.00 0.00 82 1028.9
20260830173040 57 183 3.0 8.0 0.00 0.00 0.00 81 1028.8
20260830171537 57 188 1.0 4.0 0.00 0.00 0.00 81 1028.9
20260830170032 57 321 0.0 3.0 0.00 0.00 0.00 81 1028.9
20260830164542 58 89 0.0 7.0 0.00 0.00 0.00 81 1029.1
20260830163028 58 187 1.0 6.0 0.00 0.00 0.00 82 1029.2
20260830161525 58 231 0.0 3.0 0.00 0.00 0.00 82 1029.2
20260830160025 57 201 1.0 4.0 0.00 0.00 0.00 82 1029.3
20260830154521 57 340 1.0 9.0 0.00 0.00 0.00 83 1029.5
20260830153020 57 160 2.0 7.0 0.00 0.00 0.00 83 1029.6
20260830151534 57 197 1.0 4.0 0.00 0.00 0.00 84 1029.7
20260830150014 57 223 3.0 5.0 0.00 0.00 0.00 83 1029.7
20260830144511 57 306 0.0 2.0 0.00 0.00 0.00 83 1029.9
20260830143010 58 314 1.0 3.0 0.00 0.00 0.00 83 1030.0
20260830141507 58 223 1.0 4.0 0.00 0.00 0.00 83 1030.1
20260830140004 58 127 1.0 6.0 0.00 0.00 0.00 83 1030.1
20260830134506 58 160 0.0 4.0 0.00 0.00 0.00 83 1030.1
20260830133002 59 269 0.0 5.0 0.00 0.00 0.00 83 1030.0
20260830131614 59 141 2.0 5.0 0.00 0.00 0.00 82 1029.9
20260830130058 60 187 2.0 5.0 0.00 0.00 0.00 82 1029.9
20260830124611 60 213 1.0 5.0 0.00 0.00 0.00 82 1029.9
20260830123058 60 178 1.0 5.0 0.00 0.00 0.00 81 1030.0
20260830121555 61 178 3.0 5.0 0.00 0.00 0.00 80 1030.0
20260830114601 61 195 3.0 5.0 0.00 0.00 0.00 80 1030.0
20260830113049 61 145 2.0 5.0 0.00 0.00 0.00 79 1029.9
20260830111550 62 185 2.0 7.0 0.00 0.00 0.00 77 1029.9